Terug naar catalogus

STARLINK-38067

ActiefCommunicatieSSO
NORAD 69747·PAYLOAD·🇺🇸 United States

Gelanceerd Jul 2, 2026 vanaf Vandenberg Space Force Base

Loading…

Volgende Passages (komende 24 uur)

TLE

VersSource: CelesTrak SupGP

Epoch: Sep 14, 2026, 23:06 UTC

1 69747C 26150J   26257.96298611  .00085649  00000+0  26593-2 0  2576
2 69747  97.2846  96.9526 0001710  93.6514  10.1351 15.33388418    11

Volg STARLINK-38067 in realtime met AllMySat

Download on the App Store